Time,TemperatureF,DewpointF,PressureIn,WindDirection,WindDirectionDegrees,WindSpeedMPH,WindSpeedGustMPH,Humidity,HourlyPrecipIn,Conditions,Clouds,dailyrainin,SoftwareType,DateUTC
2013-04-05 00:00:00,40.5,29.7,30.15,SW,225,1.0,10.0,65,0.00,,,0.00,Wunderground v.1.15,2013-04-05 04:00:00,
2013-04-05 00:10:00,40.4,29.9,30.15,SSW,211,2.0,10.0,66,0.00,,,0.00,Wunderground v.1.15,2013-04-05 04:10:00,
2013-04-05 00:15:00,40.5,30.4,30.14,SW,224,2.0,10.0,67,0.00,,,0.00,Wunderground v.1.15,2013-04-05 04:15:00,
2013-04-05 00:20:00,40.5,30.4,30.14,SW,224,1.0,1.0,67,0.00,,,0.00,Wunderground v.1.15,2013-04-05 04:20:00,
2013-04-05 00:25:00,40.5,30.8,30.14,SSW,209,2.0,2.0,68,0.00,,,0.00,Wunderground v.1.15,2013-04-05 04:25:00,
2013-04-05 00:30:00,40.5,30.8,30.14,WSW,244,2.0,2.0,68,0.00,,,0.00,Wunderground v.1.15,2013-04-05 04:30:00,
2013-04-05 00:35:00,40.6,31.2,30.14,WSW,244,2.0,10.0,69,0.00,,,0.00,Wunderground v.1.15,2013-04-05 04:35:00,
2013-04-05 00:40:00,40.6,31.2,30.14,WSW,249,2.0,2.0,69,0.00,,,0.00,Wunderground v.1.15,2013-04-05 04:40:00,
2013-04-05 00:45:00,40.6,31.2,30.13,SSW,193,2.0,6.0,69,0.00,,,0.00,Wunderground v.1.15,2013-04-05 04:45:00,
2013-04-05 00:50:00,40.7,31.3,30.13,SW,228,2.0,2.0,69,0.00,,,0.00,Wunderground v.1.15,2013-04-05 04:50:00,
2013-04-05 00:55:00,40.7,31.3,30.14,SSW,211,3.0,4.0,69,0.00,,,0.00,Wunderground v.1.15,2013-04-05 04:55:00,
2013-04-05 01:00:00,40.8,31.4,30.14,SSW,205,2.0,10.0,69,0.00,,,0.00,Wunderground v.1.15,2013-04-05 05:00:00,
2013-04-05 01:05:00,40.8,31.4,30.14,SW,229,3.0,10.0,69,0.00,,,0.00,Wunderground v.1.15,2013-04-05 05:05:00,
2013-04-05 01:10:00,40.9,31.5,30.14,SSW,198,4.0,4.0,69,0.00,,,0.00,Wunderground v.1.15,2013-04-05 05:10:00,
2013-04-05 01:20:00,40.9,31.5,30.13,SSW,209,3.0,10.0,69,0.00,,,0.00,Wunderground v.1.15,2013-04-05 05:20:00,
2013-04-05 01:25:00,41.0,33.0,30.13,WSW,238,3.0,10.0,73,0.00,,,0.00,Wunderground v.1.15,2013-04-05 05:25:00,
2013-04-05 01:30:00,41.0,31.6,30.13,SW,226,4.0,10.0,69,0.00,,,0.00,Wunderground v.1.15,2013-04-05 05:30:00,
2013-04-05 01:35:00,41.1,31.7,30.13,WSW,239,4.0,10.0,69,0.00,,,0.00,Wunderground v.1.15,2013-04-05 05:35:00,
2013-04-05 01:40:00,41.1,31.7,30.12,SW,225,3.0,3.0,69,0.00,,,0.00,Wunderground v.1.15,2013-04-05 05:40:00,
2013-04-05 01:45:00,41.1,31.7,30.12,SW,224,1.0,4.0,69,0.00,,,0.00,Wunderground v.1.15,2013-04-05 05:45:00,
2013-04-05 01:50:00,41.1,31.7,30.11,SW,221,1.0,1.0,69,0.00,,,0.00,Wunderground v.1.15,2013-04-05 05:50:00,
2013-04-05 02:00:00,41.3,31.9,30.10,SW,225,3.0,5.0,69,0.00,,,0.00,Wunderground v.1.15,2013-04-05 06:00:00,
2013-04-05 02:10:00,41.4,32.0,30.10,SSW,203,2.0,2.0,69,0.00,,,0.00,Wunderground v.1.15,2013-04-05 06:10:00,
2013-04-05 02:15:00,41.4,32.0,30.09,SW,222,2.0,3.0,69,0.00,,,0.00,Wunderground v.1.15,2013-04-05 06:15:00,
2013-04-05 02:20:00,41.4,32.0,30.09,SW,217,3.0,3.0,69,0.00,,,0.00,Wunderground v.1.15,2013-04-05 06:20:00,
2013-04-05 02:25:00,41.4,32.0,30.09,SW,233,2.0,5.0,69,0.00,,,0.00,Wunderground v.1.15,2013-04-05 06:25:00,
2013-04-05 02:30:00,41.4,32.0,30.09,SSW,207,2.0,2.0,69,0.00,,,0.00,Wunderground v.1.15,2013-04-05 06:30:00,
2013-04-05 02:35:00,41.5,32.1,30.08,SW,225,2.0,2.0,69,0.00,,,0.00,Wunderground v.1.15,2013-04-05 06:35:00,
2013-04-05 02:40:00,41.5,32.1,30.08,SW,234,2.0,4.0,69,0.00,,,0.00,Wunderground v.1.15,2013-04-05 06:40:00,
2013-04-05 02:50:00,41.6,32.5,30.08,SW,220,3.0,3.0,70,0.00,,,0.00,Wunderground v.1.15,2013-04-05 06:50:00,
2013-04-05 02:55:00,41.6,32.5,30.08,SSW,198,2.0,4.0,70,0.00,,,0.00,Wunderground v.1.15,2013-04-05 06:55:00,
2013-04-05 03:00:00,41.5,32.4,30.08,SSW,209,2.0,2.0,70,0.00,,,0.00,Wunderground v.1.15,2013-04-05 07:00:00,
2013-04-05 03:10:00,41.5,33.1,30.07,SSW,211,3.0,3.0,72,0.00,,,0.00,Wunderground v.1.15,2013-04-05 07:10:00,
2013-04-05 03:15:00,41.4,33.4,30.07,WSW,253,2.0,6.0,73,0.00,,,0.00,Wunderground v.1.15,2013-04-05 07:15:00,
2013-04-05 03:20:00,41.2,33.5,30.07,ESE,121,2.0,2.0,74,0.00,,,0.00,Wunderground v.1.15,2013-04-05 07:20:00,
2013-04-05 03:25:00,41.1,34.1,30.07,ESE,123,1.0,6.0,76,0.00,,,0.00,Wunderground v.1.15,2013-04-05 07:25:00,
2013-04-05 03:30:00,40.9,34.2,30.07,South,189,1.0,6.0,77,0.00,,,0.00,Wunderground v.1.15,2013-04-05 07:30:00,
2013-04-05 03:35:00,40.7,34.4,30.07,SW,229,1.0,6.0,78,0.00,,,0.00,Wunderground v.1.15,2013-04-05 07:35:00,
2013-04-05 03:40:00,40.6,34.6,30.06,SSW,202,1.0,1.0,79,0.00,,,0.00,Wunderground v.1.15,2013-04-05 07:40:00,
2013-04-05 03:45:00,40.4,34.4,30.06,SSW,198,1.0,6.0,79,0.00,,,0.00,Wunderground v.1.15,2013-04-05 07:45:00,
2013-04-05 03:50:00,40.3,34.6,30.05,SSW,206,1.0,6.0,80,0.00,,,0.00,Wunderground v.1.15,2013-04-05 07:50:00,
2013-04-05 04:00:00,40.0,34.9,30.05,SW,214,1.0,1.0,82,0.00,,,0.00,Wunderground v.1.15,2013-04-05 08:00:00,
2013-04-05 04:10:00,39.8,35.4,30.04,SW,214,0.0,6.0,84,0.00,,,0.00,Wunderground v.1.15,2013-04-05 08:10:00,
2013-04-05 04:15:00,39.7,35.6,30.04,SW,214,0.0,6.0,85,0.00,,,0.01,Wunderground v.1.15,2013-04-05 08:15:00,
2013-04-05 04:20:00,39.6,35.5,30.04,SW,214,0.0,6.0,85,0.00,,,0.01,Wunderground v.1.15,2013-04-05 08:20:00,
2013-04-05 04:25:00,39.5,35.7,30.03,SW,214,0.0,6.0,86,0.00,,,0.01,Wunderground v.1.15,2013-04-05 08:25:00,
2013-04-05 04:30:00,39.4,35.6,30.03,SW,214,0.0,6.0,86,0.00,,,0.01,Wunderground v.1.15,2013-04-05 08:30:00,
2013-04-05 04:35:00,39.4,35.6,30.02,SW,214,0.0,6.0,86,0.00,,,0.01,Wunderground v.1.15,2013-04-05 08:35:00,
2013-04-05 04:40:00,39.3,35.8,30.02,SW,214,0.0,6.0,87,0.00,,,0.01,Wunderground v.1.15,2013-04-05 08:40:00,
2013-04-05 04:45:00,39.3,35.8,30.02,SW,214,0.0,6.0,87,0.00,,,0.01,Wunderground v.1.15,2013-04-05 08:45:00,
2013-04-05 04:50:00,39.2,35.7,30.01,SW,214,0.0,6.0,87,0.00,,,0.01,Wunderground v.1.15,2013-04-05 08:50:00,
2013-04-05 04:55:00,39.2,35.9,30.02,SW,214,0.0,6.0,88,0.00,,,0.01,Wunderground v.1.15,2013-04-05 08:55:00,
2013-04-05 05:00:00,39.2,35.9,30.03,SW,214,0.0,6.0,88,0.00,,,0.01,Wunderground v.1.15,2013-04-05 09:00:00,
2013-04-05 05:10:00,39.2,36.2,30.02,SW,214,0.0,6.0,89,0.00,,,0.01,Wunderground v.1.15,2013-04-05 09:10:00,
2013-04-05 05:15:00,39.2,36.2,30.02,SW,214,0.0,6.0,89,0.00,,,0.01,Wunderground v.1.15,2013-04-05 09:15:00,
2013-04-05 05:20:00,39.1,36.1,30.02,SW,214,0.0,6.0,89,0.00,,,0.01,Wunderground v.1.15,2013-04-05 09:20:00,
2013-04-05 05:25:00,39.1,36.1,30.02,SW,214,0.0,6.0,89,0.00,,,0.01,Wunderground v.1.15,2013-04-05 09:25:00,
2013-04-05 05:35:00,39.1,36.4,30.02,SW,214,0.0,6.0,90,0.00,,,0.02,Wunderground v.1.15,2013-04-05 09:35:00,
2013-04-05 05:40:00,39.0,36.3,30.01,SW,214,0.0,6.0,90,0.00,,,0.02,Wunderground v.1.15,2013-04-05 09:40:00,
2013-04-05 05:45:00,38.9,36.2,30.00,SW,214,0.0,6.0,90,0.00,,,0.02,Wunderground v.1.15,2013-04-05 09:45:00,
2013-04-05 05:55:00,38.8,36.4,30.01,SSW,204,0.0,6.0,91,0.00,,,0.02,Wunderground v.1.15,2013-04-05 09:55:00,
2013-04-05 06:05:00,38.8,36.4,30.00,SE,144,1.0,6.0,91,0.00,,,0.02,Wunderground v.1.15,2013-04-05 10:05:00,
2013-04-05 06:10:00,38.7,36.3,30.00,SE,132,2.0,2.0,91,0.00,,,0.02,Wunderground v.1.15,2013-04-05 10:10:00,
2013-04-05 06:15:00,38.8,36.7,30.00,SE,137,1.0,6.0,92,0.00,,,0.02,Wunderground v.1.15,2013-04-05 10:15:00,
2013-04-05 06:20:00,38.7,36.6,30.00,SE,137,1.0,1.0,92,0.00,,,0.02,Wunderground v.1.15,2013-04-05 10:20:00,
2013-04-05 06:25:00,38.8,36.7,30.00,SSE,149,0.0,6.0,92,0.00,,,0.02,Wunderground v.1.15,2013-04-05 10:25:00,
2013-04-05 06:30:00,38.7,36.6,30.00,SSE,149,0.0,6.0,92,0.00,,,0.03,Wunderground v.1.15,2013-04-05 10:30:00,
2013-04-05 06:35:00,38.7,36.6,30.00,SSE,149,0.0,6.0,92,0.00,,,0.03,Wunderground v.1.15,2013-04-05 10:35:00,
2013-04-05 06:40:00,38.7,36.6,29.99,SSE,149,0.0,6.0,92,0.00,,,0.03,Wunderground v.1.15,2013-04-05 10:40:00,
2013-04-05 06:50:00,38.6,36.5,29.98,SSE,149,0.0,6.0,92,0.00,,,0.03,Wunderground v.1.15,2013-04-05 10:50:00,
2013-04-05 06:55:00,38.7,36.6,29.98,SSE,149,0.0,6.0,92,0.00,,,0.03,Wunderground v.1.15,2013-04-05 10:55:00,
2013-04-05 07:00:00,38.7,36.6,29.98,SSE,149,0.0,6.0,92,0.00,,,0.04,Wunderground v.1.15,2013-04-05 11:00:00,
2013-04-05 07:05:00,38.7,36.6,29.99,SSE,149,0.0,6.0,92,0.00,,,0.04,Wunderground v.1.15,2013-04-05 11:05:00,
2013-04-05 07:10:00,38.7,36.6,29.99,SSE,149,0.0,6.0,92,0.00,,,0.04,Wunderground v.1.15,2013-04-05 11:10:00,
2013-04-05 07:20:00,38.7,36.9,29.99,SSE,149,0.0,6.0,93,0.00,,,0.04,Wunderground v.1.15,2013-04-05 11:20:00,
2013-04-05 07:25:00,38.7,36.9,29.99,SSE,149,0.0,6.0,93,0.00,,,0.04,Wunderground v.1.15,2013-04-05 11:25:00,
2013-04-05 07:30:00,38.7,36.9,29.99,SSE,149,0.0,6.0,93,0.00,,,0.04,Wunderground v.1.15,2013-04-05 11:30:00,
2013-04-05 07:35:00,38.8,36.9,29.98,SSE,149,0.0,6.0,93,0.00,,,0.04,Wunderground v.1.15,2013-04-05 11:35:00,
2013-04-05 07:40:00,38.8,36.9,29.97,SSE,149,0.0,6.0,93,0.00,,,0.04,Wunderground v.1.15,2013-04-05 11:40:00,
2013-04-05 07:45:00,38.8,36.9,29.97,SSE,149,0.0,6.0,93,0.00,,,0.04,Wunderground v.1.15,2013-04-05 11:45:00,
2013-04-05 07:50:00,38.8,36.9,29.97,SSE,149,0.0,6.0,93,0.00,,,0.04,Wunderground v.1.15,2013-04-05 11:50:00,
2013-04-05 07:55:00,38.9,37.0,29.97,East,85,0.0,6.0,93,0.00,,,0.04,Wunderground v.1.15,2013-04-05 11:55:00,
2013-04-05 08:00:00,39.0,37.1,29.96,East,85,0.0,6.0,93,0.00,,,0.04,Wunderground v.1.15,2013-04-05 12:00:00,
2013-04-05 08:05:00,39.0,37.1,29.97,East,85,0.0,6.0,93,0.00,,,0.04,Wunderground v.1.15,2013-04-05 12:05:00,
2013-04-05 08:10:00,39.1,37.2,29.96,East,85,0.0,6.0,93,0.00,,,0.04,Wunderground v.1.15,2013-04-05 12:10:00,
2013-04-05 08:15:00,39.3,37.4,29.97,ENE,74,1.0,6.0,93,0.00,,,0.04,Wunderground v.1.15,2013-04-05 12:15:00,
2013-04-05 08:25:00,39.4,37.5,29.97,ENE,74,0.0,6.0,93,0.00,,,0.04,Wunderground v.1.15,2013-04-05 12:25:00,
2013-04-05 08:30:00,39.3,37.4,29.96,ENE,74,0.0,6.0,93,0.00,,,0.04,Wunderground v.1.15,2013-04-05 12:30:00,
2013-04-05 08:35:00,39.4,37.5,29.96,ENE,74,0.0,6.0,93,0.00,,,0.04,Wunderground v.1.15,2013-04-05 12:35:00,
2013-04-05 08:40:00,39.4,37.5,29.97,ENE,74,0.0,6.0,93,0.00,,,0.04,Wunderground v.1.15,2013-04-05 12:40:00,
2013-04-05 08:45:00,39.6,37.7,29.96,ENE,74,0.0,6.0,93,0.00,,,0.04,Wunderground v.1.15,2013-04-05 12:45:00,
2013-04-05 08:50:00,39.7,37.8,29.96,NNE,13,0.0,6.0,93,0.00,,,0.04,Wunderground v.1.15,2013-04-05 12:50:00,
2013-04-05 08:55:00,39.8,37.9,29.95,NNE,13,1.0,6.0,93,0.00,,,0.04,Wunderground v.1.15,2013-04-05 12:55:00,
2013-04-05 09:00:00,40.0,37.9,29.94,NNE,13,1.0,1.0,92,0.00,,,0.04,Wunderground v.1.15,2013-04-05 13:00:00,
2013-04-05 09:10:00,40.2,37.8,29.94,NNE,22,2.0,6.0,91,0.00,,,0.04,Wunderground v.1.15,2013-04-05 13:10:00,
2013-04-05 09:15:00,40.3,38.2,29.93,NNE,22,2.0,6.0,92,0.00,,,0.04,Wunderground v.1.15,2013-04-05 13:15:00,
2013-04-05 09:20:00,40.6,38.5,29.93,North,355,1.0,6.0,92,0.00,,,0.04,Wunderground v.1.15,2013-04-05 13:20:00,
2013-04-05 09:25:00,40.9,38.5,29.93,North,360,2.0,6.0,91,0.00,,,0.04,Wunderground v.1.15,2013-04-05 13:25:00,
2013-04-05 09:30:00,41.0,37.7,29.93,North,5,4.0,6.0,88,0.00,,,0.04,Wunderground v.1.15,2013-04-05 13:30:00,
2013-04-05 09:35:00,41.1,37.2,29.93,North,9,4.0,6.0,86,0.00,,,0.04,Wunderground v.1.15,2013-04-05 13:35:00,
2013-04-05 09:45:00,42.2,38.9,29.92,NW,310,3.0,6.0,88,0.00,,,0.05,Wunderground v.1.15,2013-04-05 13:45:00,
2013-04-05 09:50:00,42.9,39.3,29.92,NW,310,2.0,2.0,87,0.00,,,0.05,Wunderground v.1.15,2013-04-05 13:50:00,
2013-04-05 09:55:00,43.2,38.7,29.92,NW,315,2.0,3.0,84,0.00,,,0.05,Wunderground v.1.15,2013-04-05 13:55:00,
2013-04-05 10:05:00,44.2,39.1,29.92,NNW,331,3.0,6.0,82,0.00,,,0.05,Wunderground v.1.15,2013-04-05 14:05:00,
2013-04-05 10:10:00,45.0,39.2,29.92,North,360,3.0,6.0,80,0.00,,,0.05,Wunderground v.1.15,2013-04-05 14:10:00,
2013-04-05 10:20:00,46.0,38.2,29.91,NE,48,2.0,2.0,74,0.00,,,0.05,Wunderground v.1.15,2013-04-05 14:20:00,
2013-04-05 10:25:00,46.3,37.8,29.92,WNW,296,2.0,6.0,72,0.00,,,0.05,Wunderground v.1.15,2013-04-05 14:25:00,
2013-04-05 10:30:00,46.7,37.8,29.91,NW,316,3.0,3.0,71,0.00,,,0.05,Wunderground v.1.15,2013-04-05 14:30:00,
2013-04-05 10:35:00,46.7,37.8,29.91,NNE,13,3.0,6.0,71,0.00,,,0.05,Wunderground v.1.15,2013-04-05 14:35:00,
2013-04-05 10:40:00,47.2,36.8,29.90,NNW,344,2.0,6.0,67,0.00,,,0.05,Wunderground v.1.15,2013-04-05 14:40:00,
2013-04-05 10:45:00,47.7,36.5,29.90,North,355,3.0,6.0,65,0.00,,,0.05,Wunderground v.1.15,2013-04-05 14:45:00,
2013-04-05 10:50:00,47.7,35.3,29.90,NNW,342,3.0,3.0,62,0.00,,,0.05,Wunderground v.1.15,2013-04-05 14:50:00,
2013-04-05 10:55:00,47.9,36.3,29.89,NNW,344,2.0,6.0,64,0.00,,,0.05,Wunderground v.1.15,2013-04-05 14:55:00,
2013-04-05 11:00:00,48.6,36.2,29.89,North,355,1.0,6.0,62,0.00,,,0.05,Wunderground v.1.15,2013-04-05 15:00:00,
2013-04-05 11:05:00,49.0,36.9,29.89,North,360,1.0,6.0,63,0.00,,,0.05,Wunderground v.1.15,2013-04-05 15:05:00,
2013-04-05 11:15:00,50.3,36.9,29.89,NNE,26,1.0,6.0,60,0.00,,,0.05,Wunderground v.1.15,2013-04-05 15:15:00,
2013-04-05 11:25:00,50.8,36.1,29.89,North,10,3.0,6.0,57,0.00,,,0.05,Wunderground v.1.15,2013-04-05 15:25:00,
2013-04-05 11:30:00,50.8,34.3,29.89,NNW,348,4.0,8.0,53,0.00,,,0.05,Wunderground v.1.15,2013-04-05 15:30:00,
2013-04-05 11:35:00,51.9,34.8,29.88,ENE,65,5.0,8.0,52,0.00,,,0.05,Wunderground v.1.15,2013-04-05 15:35:00,
2013-04-05 11:40:00,51.9,33.8,29.88,NNE,26,4.0,4.0,50,0.00,,,0.05,Wunderground v.1.15,2013-04-05 15:40:00,
2013-04-05 11:45:00,52.7,32.5,29.88,WNW,297,4.0,6.0,46,0.00,,,0.05,Wunderground v.1.15,2013-04-05 15:45:00,
2013-04-05 11:50:00,53.8,32.4,29.87,NW,321,4.0,7.0,44,0.00,,,0.05,Wunderground v.1.15,2013-04-05 15:50:00,
2013-04-05 12:00:00,54.8,32.1,29.87,WNW,289,5.0,5.0,42,0.00,,,0.05,Wunderground v.1.15,2013-04-05 16:00:00,
2013-04-05 12:05:00,55.3,31.4,29.87,NNW,329,4.0,6.0,40,0.00,,,0.05,Wunderground v.1.15,2013-04-05 16:05:00,
2013-04-05 12:10:00,55.6,33.4,29.86,WNW,289,4.0,7.0,43,0.00,,,0.05,Wunderground v.1.15,2013-04-05 16:10:00,
2013-04-05 12:15:00,56.4,33.6,29.86,NW,319,4.0,7.0,42,0.00,,,0.05,Wunderground v.1.15,2013-04-05 16:15:00,
2013-04-05 12:20:00,57.1,33.6,29.86,NW,306,4.0,6.0,41,0.00,,,0.05,Wunderground v.1.15,2013-04-05 16:20:00,
2013-04-05 12:25:00,57.5,32.7,29.85,North,349,4.0,6.0,39,0.00,,,0.05,Wunderground v.1.15,2013-04-05 16:25:00,
2013-04-05 12:40:00,58.1,32.6,29.84,NW,309,5.0,5.0,38,0.00,,,0.05,Wunderground v.1.15,2013-04-05 16:40:00,
2013-04-05 12:45:00,58.4,32.9,29.84,WNW,290,6.0,6.0,38,0.00,,,0.05,Wunderground v.1.15,2013-04-05 16:45:00,
2013-04-05 12:50:00,58.6,32.4,29.83,WNW,286,6.0,6.0,37,0.00,,,0.05,Wunderground v.1.15,2013-04-05 16:50:00,
2013-04-05 12:55:00,58.7,31.8,29.83,WNW,290,6.0,6.0,36,0.00,,,0.05,Wunderground v.1.15,2013-04-05 16:55:00,
2013-04-05 13:00:00,59.0,33.4,29.83,NNE,12,6.0,7.0,38,0.00,,,0.05,Wunderground v.1.15,2013-04-05 17:00:00,
2013-04-05 13:05:00,59.1,31.4,29.83,NNW,344,5.0,7.0,35,0.00,,,0.05,Wunderground v.1.15,2013-04-05 17:05:00,
2013-04-05 13:10:00,58.7,31.1,29.82,NNE,13,5.0,5.0,35,0.00,,,0.05,Wunderground v.1.15,2013-04-05 17:10:00,
2013-04-05 13:15:00,58.6,31.7,29.82,North,349,5.0,6.0,36,0.00,,,0.05,Wunderground v.1.15,2013-04-05 17:15:00,
2013-04-05 13:30:00,58.7,29.6,29.81,North,360,5.0,8.0,33,0.00,,,0.05,Wunderground v.1.15,2013-04-05 17:30:00,
2013-04-05 13:40:00,59.0,30.6,29.82,NNE,20,4.0,6.0,34,0.00,,,0.05,Wunderground v.1.15,2013-04-05 17:40:00,
2013-04-05 13:45:00,59.8,29.9,29.82,NNW,338,4.0,8.0,32,0.00,,,0.05,Wunderground v.1.15,2013-04-05 17:45:00,
2013-04-05 13:50:00,59.6,30.4,29.81,NNE,22,5.0,7.0,33,0.00,,,0.05,Wunderground v.1.15,2013-04-05 17:50:00,
2013-04-05 14:00:00,59.5,28.8,29.80,NE,43,4.0,4.0,31,0.00,,,0.05,Wunderground v.1.15,2013-04-05 18:00:00,
2013-04-05 14:05:00,59.4,29.5,29.80,NE,44,4.0,6.0,32,0.00,,,0.05,Wunderground v.1.15,2013-04-05 18:05:00,
2013-04-05 14:10:00,59.3,29.4,29.79,NE,47,4.0,4.0,32,0.00,,,0.05,Wunderground v.1.15,2013-04-05 18:10:00,
2013-04-05 14:15:00,59.5,29.6,29.79,NW,308,3.0,7.0,32,0.00,,,0.05,Wunderground v.1.15,2013-04-05 18:15:00,
2013-04-05 14:20:00,60.6,30.6,29.79,North,355,4.0,6.0,32,0.00,,,0.05,Wunderground v.1.15,2013-04-05 18:20:00,
2013-04-05 14:25:00,60.1,29.3,29.78,NNE,29,5.0,6.0,31,0.00,,,0.05,Wunderground v.1.15,2013-04-05 18:25:00,
2013-04-05 14:30:00,60.5,31.2,29.78,NNW,335,3.0,6.0,33,0.00,,,0.05,Wunderground v.1.15,2013-04-05 18:30:00,
2013-04-05 14:35:00,60.6,29.8,29.78,NNE,33,4.0,6.0,31,0.00,,,0.05,Wunderground v.1.15,2013-04-05 18:35:00,
2013-04-05 14:40:00,60.0,29.2,29.77,NNW,334,4.0,4.0,31,0.00,,,0.05,Wunderground v.1.15,2013-04-05 18:40:00,
2013-04-05 14:45:00,61.1,30.2,29.77,ENE,61,4.0,6.0,31,0.00,,,0.05,Wunderground v.1.15,2013-04-05 18:45:00,
2013-04-05 14:50:00,61.0,30.1,29.77,NNE,32,3.0,6.0,31,0.00,,,0.05,Wunderground v.1.15,2013-04-05 18:50:00,
2013-04-05 14:55:00,61.4,28.0,29.76,NE,50,3.0,6.0,28,0.00,,,0.05,Wunderground v.1.15,2013-04-05 18:55:00,
2013-04-05 15:00:00,61.9,30.1,29.76,NE,46,3.0,3.0,30,0.00,,,0.05,Wunderground v.1.15,2013-04-05 19:00:00,
2013-04-05 15:05:00,61.9,28.4,29.76,NNE,30,3.0,5.0,28,0.00,,,0.05,Wunderground v.1.15,2013-04-05 19:05:00,
2013-04-05 15:10:00,61.4,30.5,29.76,NW,324,3.0,3.0,31,0.00,,,0.05,Wunderground v.1.15,2013-04-05 19:10:00,
2013-04-05 15:15:00,62.7,26.3,29.76,North,5,4.0,7.0,25,0.00,,,0.05,Wunderground v.1.15,2013-04-05 19:15:00,
2013-04-05 15:20:00,64.0,24.4,29.76,NNE,26,6.0,6.0,22,0.00,,,0.05,Wunderground v.1.15,2013-04-05 19:20:00,
2013-04-05 15:25:00,64.7,26.0,29.75,North,350,6.0,6.0,23,0.00,,,0.05,Wunderground v.1.15,2013-04-05 19:25:00,
2013-04-05 15:30:00,65.6,24.6,29.75,North,355,5.0,8.0,21,0.00,,,0.05,Wunderground v.1.15,2013-04-05 19:30:00,
2013-04-05 15:35:00,66.2,25.1,29.75,WNW,283,5.0,8.0,21,0.00,,,0.05,Wunderground v.1.15,2013-04-05 19:35:00,
2013-04-05 15:45:00,67.0,26.9,29.75,NW,317,4.0,10.0,22,0.00,,,0.05,Wunderground v.1.15,2013-04-05 19:45:00,
2013-04-05 15:50:00,67.5,26.2,29.75,NNW,329,4.0,6.0,21,0.00,,,0.05,Wunderground v.1.15,2013-04-05 19:50:00,
2013-04-05 15:55:00,67.8,25.2,29.75,North,355,5.0,6.0,20,0.00,,,0.05,Wunderground v.1.15,2013-04-05 19:55:00,
2013-04-05 16:00:00,67.3,24.8,29.75,West,265,6.0,6.0,20,0.00,,,0.05,Wunderground v.1.15,2013-04-05 20:00:00,
2013-04-05 16:05:00,67.0,23.3,29.75,NW,306,7.0,7.0,19,0.00,,,0.05,Wunderground v.1.15,2013-04-05 20:05:00,
2013-04-05 16:10:00,66.9,24.5,29.75,North,355,6.0,6.0,20,0.00,,,0.05,Wunderground v.1.15,2013-04-05 20:10:00,
2013-04-05 16:15:00,67.4,27.2,29.74,NW,309,4.0,9.0,22,0.00,,,0.05,Wunderground v.1.15,2013-04-05 20:15:00,
2013-04-05 16:20:00,67.2,24.7,29.74,NW,325,6.0,6.0,20,0.00,,,0.05,Wunderground v.1.15,2013-04-05 20:20:00,
2013-04-05 16:30:00,67.1,25.8,29.74,WNW,299,6.0,6.0,21,0.00,,,0.05,Wunderground v.1.15,2013-04-05 20:30:00,
2013-04-05 16:40:00,67.0,26.9,29.75,NW,310,7.0,7.0,22,0.00,,,0.05,Wunderground v.1.15,2013-04-05 20:40:00,
2013-04-05 16:45:00,66.8,26.7,29.75,WNW,303,6.0,7.0,22,0.00,,,0.05,Wunderground v.1.15,2013-04-05 20:45:00,
2013-04-05 16:50:00,67.0,27.9,29.75,WNW,300,6.0,6.0,23,0.00,,,0.05,Wunderground v.1.15,2013-04-05 20:50:00,
2013-04-05 16:55:00,66.9,28.9,29.76,NW,314,5.0,8.0,24,0.00,,,0.05,Wunderground v.1.15,2013-04-05 20:55:00,
2013-04-05 17:00:00,65.8,28.0,29.76,NNE,25,7.0,7.0,24,0.00,,,0.05,Wunderground v.1.15,2013-04-05 21:00:00,
2013-04-05 17:05:00,65.2,28.5,29.76,NW,323,8.0,12.0,25,0.00,,,0.05,Wunderground v.1.15,2013-04-05 21:05:00,
2013-04-05 17:10:00,64.6,27.9,29.77,NNW,340,9.0,10.0,25,0.00,,,0.05,Wunderground v.1.15,2013-04-05 21:10:00,
2013-04-05 17:15:00,64.2,27.6,29.78,NW,313,8.0,12.0,25,0.00,,,0.05,Wunderground v.1.15,2013-04-05 21:15:00,
2013-04-05 17:20:00,63.9,27.4,29.77,NNW,334,8.0,10.0,25,0.00,,,0.05,Wunderground v.1.15,2013-04-05 21:20:00,
2013-04-05 17:25:00,63.7,26.2,29.78,West,260,8.0,10.0,24,0.00,,,0.05,Wunderground v.1.15,2013-04-05 21:25:00,
2013-04-05 17:30:00,63.4,25.9,29.79,WNW,295,8.0,9.0,24,0.00,,,0.05,Wunderground v.1.15,2013-04-05 21:30:00,
2013-04-05 17:40:00,63.1,24.7,29.80,WNW,296,8.0,8.0,23,0.00,,,0.05,Wunderground v.1.15,2013-04-05 21:40:00,
2013-04-05 17:45:00,62.8,24.4,29.80,WNW,303,8.0,8.0,23,0.00,,,0.05,Wunderground v.1.15,2013-04-05 21:45:00,
2013-04-05 17:55:00,62.6,24.2,29.81,NW,321,7.0,8.0,23,0.00,,,0.05,Wunderground v.1.15,2013-04-05 21:55:00,
2013-04-05 18:00:00,62.6,25.3,29.81,NW,309,6.0,9.0,24,0.00,,,0.05,Wunderground v.1.15,2013-04-05 22:00:00,
2013-04-05 18:05:00,62.2,23.9,29.81,North,355,6.0,9.0,23,0.00,,,0.05,Wunderground v.1.15,2013-04-05 22:05:00,
2013-04-05 18:10:00,61.9,24.7,29.81,NNW,330,7.0,9.0,24,0.00,,,0.05,Wunderground v.1.15,2013-04-05 22:10:00,
2013-04-05 18:15:00,61.7,24.5,29.82,WNW,300,6.0,13.0,24,0.00,,,0.05,Wunderground v.1.15,2013-04-05 22:15:00,
2013-04-05 18:20:00,61.3,26.1,29.82,North,360,7.0,7.0,26,0.00,,,0.05,Wunderground v.1.15,2013-04-05 22:20:00,
2013-04-05 18:25:00,60.9,25.7,29.82,WNW,296,8.0,8.0,26,0.00,,,0.05,Wunderground v.1.15,2013-04-05 22:25:00,
2013-04-05 18:30:00,60.4,23.4,29.83,NW,306,7.0,7.0,24,0.00,,,0.05,Wunderground v.1.15,2013-04-05 22:30:00,
2013-04-05 18:35:00,60.0,22.0,29.83,North,360,8.0,8.0,23,0.00,,,0.05,Wunderground v.1.15,2013-04-05 22:35:00,
2013-04-05 18:40:00,59.7,22.8,29.83,NNW,331,7.0,7.0,24,0.00,,,0.05,Wunderground v.1.15,2013-04-05 22:40:00,
2013-04-05 18:45:00,59.4,22.6,29.83,NW,311,6.0,9.0,24,0.00,,,0.05,Wunderground v.1.15,2013-04-05 22:45:00,
2013-04-05 18:50:00,59.1,23.3,29.83,NNW,331,6.0,6.0,25,0.00,,,0.05,Wunderground v.1.15,2013-04-05 22:50:00,
2013-04-05 18:55:00,58.8,23.0,29.84,WNW,291,6.0,6.0,25,0.00,,,0.05,Wunderground v.1.15,2013-04-05 22:55:00,
2013-04-05 19:00:00,58.5,22.8,29.84,NNW,346,6.0,6.0,25,0.00,,,0.05,Wunderground v.1.15,2013-04-05 23:00:00,
2013-04-05 19:10:00,58.0,23.3,29.85,NW,304,5.0,6.0,26,0.00,,,0.05,Wunderground v.1.15,2013-04-05 23:10:00,
2013-04-05 19:15:00,57.7,23.0,29.85,WNW,302,4.0,6.0,26,0.00,,,0.05,Wunderground v.1.15,2013-04-05 23:15:00,
2013-04-05 19:20:00,57.5,22.8,29.85,NW,323,4.0,6.0,26,0.00,,,0.05,Wunderground v.1.15,2013-04-05 23:20:00,
2013-04-05 19:25:00,57.2,23.5,29.86,NNW,327,4.0,6.0,27,0.00,,,0.05,Wunderground v.1.15,2013-04-05 23:25:00,
2013-04-05 19:35:00,56.5,23.7,29.86,NNE,17,3.0,6.0,28,0.00,,,0.05,Wunderground v.1.15,2013-04-05 23:35:00,
2013-04-05 19:40:00,56.3,24.4,29.86,NNW,331,3.0,6.0,29,0.00,,,0.05,Wunderground v.1.15,2013-04-05 23:40:00,
2013-04-05 19:45:00,56.0,25.0,29.86,NNE,28,3.0,6.0,30,0.00,,,0.05,Wunderground v.1.15,2013-04-05 23:45:00,
2013-04-05 19:50:00,55.8,24.0,29.87,NNW,342,4.0,4.0,29,0.00,,,0.05,Wunderground v.1.15,2013-04-05 23:50:00,
2013-04-05 20:00:00,55.3,24.4,29.87,NNW,348,3.0,6.0,30,0.00,,,0.05,Wunderground v.1.15,2013-04-06 00:00:00,
2013-04-05 20:05:00,55.1,25.0,29.88,North,360,2.0,6.0,31,0.00,,,0.05,Wunderground v.1.15,2013-04-06 00:05:00,
2013-04-05 20:10:00,54.8,25.5,29.88,North,360,2.0,2.0,32,0.00,,,0.05,Wunderground v.1.15,2013-04-06 00:10:00,
2013-04-05 20:15:00,54.4,25.1,29.88,NW,320,2.0,7.0,32,0.00,,,0.05,Wunderground v.1.15,2013-04-06 00:15:00,
2013-04-05 20:20:00,54.2,24.9,29.89,North,5,2.0,6.0,32,0.00,,,0.05,Wunderground v.1.15,2013-04-06 00:20:00,
2013-04-05 20:25:00,54.1,24.1,29.89,NNW,329,4.0,6.0,31,0.00,,,0.05,Wunderground v.1.15,2013-04-06 00:25:00,
2013-04-05 20:30:00,54.0,24.8,29.89,NNW,348,5.0,6.0,32,0.00,,,0.05,Wunderground v.1.15,2013-04-06 00:30:00,
2013-04-05 20:35:00,53.9,24.7,29.90,NNW,348,6.0,6.0,32,0.00,,,0.05,Wunderground v.1.15,2013-04-06 00:35:00,
2013-04-05 20:40:00,53.8,24.6,29.90,North,5,6.0,7.0,32,0.00,,,0.05,Wunderground v.1.15,2013-04-06 00:40:00,
2013-04-05 20:50:00,53.3,24.9,29.91,NNE,13,4.0,8.0,33,0.00,,,0.05,Wunderground v.1.15,2013-04-06 00:50:00,
2013-04-05 21:00:00,53.1,24.7,29.92,North,9,5.0,9.0,33,0.00,,,0.05,Wunderground v.1.15,2013-04-06 01:00:00,
2013-04-05 21:05:00,53.0,25.3,29.92,NNE,20,6.0,9.0,34,0.00,,,0.05,Wunderground v.1.15,2013-04-06 01:05:00,
2013-04-05 21:10:00,52.7,25.8,29.93,NNW,339,6.0,10.0,35,0.00,,,0.05,Wunderground v.1.15,2013-04-06 01:10:00,
2013-04-05 21:15:00,52.4,25.5,29.93,NNW,329,6.0,10.0,35,0.00,,,0.05,Wunderground v.1.15,2013-04-06 01:15:00,
2013-04-05 21:20:00,52.1,25.3,29.94,NNE,20,6.0,6.0,35,0.00,,,0.05,Wunderground v.1.15,2013-04-06 01:20:00,
2013-04-05 21:25:00,51.9,25.8,29.95,NNE,16,5.0,6.0,36,0.00,,,0.05,Wunderground v.1.15,2013-04-06 01:25:00,
2013-04-05 21:30:00,51.5,25.4,29.95,NW,326,6.0,12.0,36,0.00,,,0.05,Wunderground v.1.15,2013-04-06 01:30:00,
2013-04-05 21:35:00,51.4,26.0,29.95,North,360,7.0,12.0,37,0.00,,,0.05,Wunderground v.1.15,2013-04-06 01:35:00,
2013-04-05 21:50:00,50.7,25.3,29.96,NNE,15,7.0,11.0,37,0.00,,,0.05,Wunderground v.1.15,2013-04-06 01:50:00,
2013-04-05 21:55:00,50.6,24.6,29.97,North,355,8.0,11.0,36,0.00,,,0.05,Wunderground v.1.15,2013-04-06 01:55:00,
2013-04-05 22:00:00,50.5,25.2,29.97,NNW,341,8.0,8.0,37,0.00,,,0.05,Wunderground v.1.15,2013-04-06 02:00:00,
2013-04-05 22:05:00,50.3,25.6,29.98,NNE,27,8.0,8.0,38,0.00,,,0.05,Wunderground v.1.15,2013-04-06 02:05:00,
2013-04-05 22:10:00,50.1,26.1,29.98,North,350,6.0,6.0,39,0.00,,,0.05,Wunderground v.1.15,2013-04-06 02:10:00,
2013-04-05 22:15:00,49.8,25.8,29.98,NNW,346,6.0,6.0,39,0.00,,,0.05,Wunderground v.1.15,2013-04-06 02:15:00,
2013-04-05 22:20:00,49.6,26.2,29.98,NNW,347,6.0,6.0,40,0.00,,,0.05,Wunderground v.1.15,2013-04-06 02:20:00,
2013-04-05 22:25:00,49.4,25.4,29.99,North,350,6.0,6.0,39,0.00,,,0.05,Wunderground v.1.15,2013-04-06 02:25:00,
2013-04-05 22:30:00,49.2,25.9,29.99,NNE,12,6.0,6.0,40,0.00,,,0.05,Wunderground v.1.15,2013-04-06 02:30:00,
2013-04-05 22:35:00,48.9,26.2,29.99,NW,324,5.0,6.0,41,0.00,,,0.05,Wunderground v.1.15,2013-04-06 02:35:00,
2013-04-05 22:40:00,48.6,26.5,30.00,North,355,7.0,7.0,42,0.00,,,0.05,Wunderground v.1.15,2013-04-06 02:40:00,
2013-04-05 22:50:00,47.9,26.5,30.00,NNW,342,8.0,10.0,43,0.00,,,0.05,Wunderground v.1.15,2013-04-06 02:50:00,
2013-04-05 22:55:00,47.7,26.3,30.00,North,5,8.0,10.0,43,0.00,,,0.05,Wunderground v.1.15,2013-04-06 02:55:00,
2013-04-05 23:00:00,47.4,26.0,30.00,North,351,7.0,18.0,43,0.00,,,0.05,Wunderground v.1.15,2013-04-06 03:00:00,
2013-04-05 23:05:00,47.1,26.3,30.01,North,355,8.0,18.0,44,0.00,,,0.05,Wunderground v.1.15,2013-04-06 03:05:00,
2013-04-05 23:10:00,46.8,25.5,30.01,North,351,9.0,11.0,43,0.00,,,0.05,Wunderground v.1.15,2013-04-06 03:10:00,
2013-04-05 23:15:00,46.4,25.1,30.01,North,5,9.0,11.0,43,0.00,,,0.05,Wunderground v.1.15,2013-04-06 03:15:00,
2013-04-05 23:25:00,46.0,24.7,30.01,NNW,334,8.0,8.0,43,0.00,,,0.05,Wunderground v.1.15,2013-04-06 03:25:00,
2013-04-05 23:30:00,45.7,24.5,30.02,North,5,7.0,7.0,43,0.00,,,0.05,Wunderground v.1.15,2013-04-06 03:30:00,
2013-04-05 23:35:00,45.5,24.3,30.02,NW,306,7.0,7.0,43,0.00,,,0.05,Wunderground v.1.15,2013-04-06 03:35:00,
2013-04-05 23:40:00,45.3,24.1,30.02,NNE,13,7.0,7.0,43,0.00,,,0.05,Wunderground v.1.15,2013-04-06 03:40:00,
2013-04-05 23:45:00,45.1,23.9,30.03,NW,323,7.0,7.0,43,0.00,,,0.05,Wunderground v.1.15,2013-04-06 03:45:00,
2013-04-05 23:50:00,44.9,23.7,30.03,NNE,32,6.0,6.0,43,0.00,,,0.05,Wunderground v.1.15,2013-04-06 03:50:00,
2013-04-05 23:55:00,44.7,23.5,30.03,NW,322,6.0,7.0,43,0.00,,,0.00,Wunderground v.1.15,2013-04-06 03:55:00,